Silver City, NM

6:05 PM MST on November 24, 2017 (GMT -0700)
Grant County

Weather History for KSVC - January, 2014

Change the Weather History Date:

Wednesday, January 29, 2014

  Actual Average (KDMN) Record (KDMN)
Temperature  
Mean Temperature 38 °F -  
Max Temperature 59 °F 61 °F 77 °F (1971)
Min Temperature 17 °F 25 °F 11 °F (1990)
Degree Days  
Heating Degree Days 27    
Moisture  
Dew Point 8 °F    
Average Humidity 33    
Maximum Humidity 68    
Minimum Humidity 10    
Precipitation  
Precipitation 0.00 in - - ()
Sea Level Pressure  
Sea Level Pressure 30.13 in    
Wind  
Wind Speed 7 mph (NW)    
Max Wind Speed 15 mph    
Max Gust Speed 25 mph    
Visibility 10 miles    
Events      
Averages and records for this station are not official NWS values.
T = Trace of Precipitation, MM = Missing Value Source: NWS Daily Summary

Daily Weather History Graph

Daily Weather History Graph

Search for Another Location

Airport or City:

Trip Planner

Search our weather history database for the weather conditions in past years. The results will help you decide how hot, cold, wet, or windy it might be!

Date:

Astronomy

Jan. 29, 2014 Rise Set
Actual Time 7:09 AM MST 5:42 PM MST
Civil Twilight 6:43 AM MST 6:08 PM MST
Nautical Twilight 6:13 AM MST 6:38 PM MST
Astronomical Twilight 5:44 AM MST 7:07 PM MST
Moon 5:48 AM MST (1/29) 4:45 PM MST (1/29)
Length of Visible Light 11h 25m
Length of Day
10h 33m
Waning Crescent, 2% of the Moon is Illuminated
Jan 29
Waning Crescent
Jan 30
New
Feb 6
First Quarter
Feb 14
Full
Feb 22
Last Quarter

Hourly Weather History & Observations

Time (MST) Temp. Windchill Dew Point Humidity Pressure Visibility Wind Dir Wind Speed Gust Speed Precip Events Conditions
12:15 AM 24.8 °F 16.1 °F 10.4 °F 54% 30.18 in 10.0 mi North 8.1 mph - N/A   Clear
12:35 AM 26.6 °F 21.2 °F 10.4 °F 51% 30.18 in 10.0 mi North 4.6 mph - N/A   Clear
12:55 AM 24.8 °F 16.9 °F 10.4 °F 54% 30.18 in 10.0 mi North 6.9 mph - N/A   Clear
1:15 AM 24.8 °F 15.3 °F 10.4 °F 54% 30.17 in 10.0 mi North 9.2 mph - N/A   Clear
1:35 AM 24.8 °F 16.9 °F 10.4 °F 54% 30.18 in 10.0 mi North 6.9 mph - N/A   Clear
1:55 AM 24.8 °F 19.1 °F 10.4 °F 54% 30.18 in 10.0 mi North 4.6 mph - N/A   Clear
2:15 AM 23.0 °F 14.7 °F 10.4 °F 59% 30.18 in 10.0 mi NNW 6.9 mph - N/A   Clear
2:35 AM 23.0 °F 13.9 °F 10.4 °F 59% 30.19 in 10.0 mi North 8.1 mph - N/A   Clear
2:55 AM 21.2 °F 11.7 °F 10.4 °F 63% 30.18 in 10.0 mi North 8.1 mph - N/A   Clear
3:15 AM 24.8 °F 17.9 °F 10.4 °F 54% 30.18 in 10.0 mi NNE 5.8 mph - N/A   Clear
3:35 AM 23.0 °F 18.4 °F 10.4 °F 59% 30.17 in 10.0 mi NNE 3.5 mph - N/A   Clear
3:55 AM 21.2 °F 13.6 °F 10.4 °F 63% 30.18 in 10.0 mi North 5.8 mph - N/A   Clear
4:15 AM 21.2 °F - 10.4 °F 63% 30.19 in 10.0 mi Calm Calm - N/A   Clear
4:35 AM 19.4 °F - 8.6 °F 63% 30.17 in 10.0 mi Calm Calm - N/A   Clear
4:55 AM 21.2 °F 16.4 °F 8.6 °F 58% 30.17 in 10.0 mi ENE 3.5 mph - N/A   Clear
5:15 AM 19.4 °F - 8.6 °F 63% 30.16 in 10.0 mi Calm Calm - N/A   Clear
5:35 AM 19.4 °F - 6.8 °F 58% 30.16 in 10.0 mi Calm Calm - N/A   Clear
5:55 AM 19.4 °F - 8.6 °F 63% 30.16 in 10.0 mi Calm Calm - N/A   Clear
6:15 AM 17.6 °F 10.7 °F 8.6 °F 68% 30.16 in 10.0 mi North 4.6 mph - N/A   Clear
6:35 AM 17.6 °F 8.2 °F 8.6 °F 68% 30.17 in 10.0 mi NNW 6.9 mph - N/A   Clear
6:55 AM 17.6 °F 7.3 °F 8.6 °F 68% 30.17 in 10.0 mi NNW 8.1 mph - N/A   Clear
7:15 AM 17.6 °F 6.4 °F 8.6 °F 68% 30.18 in 10.0 mi NNW 9.2 mph - N/A   Clear
7:35 AM 19.4 °F 8.6 °F 8.6 °F 63% 30.17 in 10.0 mi NNW 9.2 mph - N/A   Clear
7:55 AM 26.6 °F 18.2 °F 6.8 °F 43% 30.18 in 10.0 mi NNW 8.1 mph - N/A   Clear
8:15 AM 32.0 °F 26.4 °F 6.8 °F 35% 30.19 in 10.0 mi North 5.8 mph - N/A   Clear
8:35 AM 37.4 °F 32.8 °F 8.6 °F 30% 30.19 in 10.0 mi North 5.8 mph - N/A   Clear
8:55 AM 41.0 °F 39.0 °F 10.4 °F 29% 30.20 in 10.0 mi NNE 3.5 mph - N/A   Clear
9:15 AM 44.6 °F - 12.2 °F 27% 30.20 in 10.0 mi Calm Calm - N/A   Clear
9:35 AM 44.6 °F - 12.2 °F 27% 30.21 in 10.0 mi Calm Calm - N/A   Clear
9:55 AM 46.4 °F - 10.4 °F 23% 30.21 in 10.0 mi Calm Calm - N/A   Clear
10:15 AM 46.4 °F 43.5 °F 10.4 °F 23% 30.21 in 10.0 mi SSW 5.8 mph - N/A   Clear
10:35 AM 48.2 °F - 10.4 °F 22% 30.21 in 10.0 mi SSW 3.5 mph - N/A   Clear
10:55 AM 48.2 °F - 12.2 °F 24% 30.21 in 10.0 mi SSE 8.1 mph - N/A   Clear
11:15 AM 48.2 °F - 10.4 °F 22% 30.21 in 10.0 mi South 4.6 mph - N/A   Clear
11:35 AM 48.2 °F - 10.4 °F 22% 30.19 in 10.0 mi South 4.6 mph - N/A   Clear
11:55 AM 50.0 °F - 8.6 °F 19% 30.18 in 10.0 mi SSE 6.9 mph - N/A   Clear
12:15 PM 50.0 °F - 6.8 °F 17% 30.16 in 10.0 mi South 8.1 mph - N/A   Clear
12:35 PM 50.0 °F - 6.8 °F 17% 30.14 in 10.0 mi South 9.2 mph - N/A   Clear
12:55 PM 50.0 °F - 6.8 °F 17% 30.13 in 10.0 mi SSE 5.8 mph - N/A   Clear
1:15 PM 53.6 °F - 6.8 °F 15% 30.12 in 10.0 mi SSE 8.1 mph - N/A   Clear
1:35 PM 53.6 °F - 6.8 °F 15% 30.11 in 10.0 mi South 10.4 mph - N/A   Clear
1:55 PM 53.6 °F - 6.8 °F 15% 30.11 in 10.0 mi South 8.1 mph - N/A   Clear
2:15 PM 53.6 °F - 8.6 °F 16% 30.09 in 10.0 mi South 9.2 mph - N/A   Clear
2:35 PM 55.4 °F - 8.6 °F 15% 30.09 in 10.0 mi SSW 9.2 mph - N/A   Clear
2:55 PM 55.4 °F - 8.6 °F 15% 30.08 in 10.0 mi SSW 9.2 mph - N/A   Clear
3:15 PM 55.4 °F - 8.6 °F 15% 30.07 in 10.0 mi South 10.4 mph - N/A   Clear
3:35 PM 57.2 °F - 8.6 °F 14% 30.07 in 10.0 mi South 9.2 mph - N/A   Clear
3:55 PM 57.2 °F - 6.8 °F 13% 30.06 in 10.0 mi SSE 8.1 mph - N/A   Clear
4:15 PM 59.0 °F - 1.4 °F 10% 30.06 in 10.0 mi NW 12.7 mph 25.3 mph N/A   Clear
4:35 PM 57.2 °F - -0.4 °F 10% 30.06 in 10.0 mi NW 13.8 mph - N/A   Clear
4:55 PM 57.2 °F - 1.4 °F 10% 30.06 in 10.0 mi WNW 13.8 mph - N/A   Clear
5:15 PM 55.4 °F - 1.4 °F 11% 30.06 in 10.0 mi WNW 15.0 mph - N/A   Clear
5:35 PM 53.6 °F - 1.4 °F 12% 30.06 in 10.0 mi WNW 10.4 mph - N/A   Clear
5:55 PM 50.0 °F - 1.4 °F 14% 30.06 in 10.0 mi WNW 6.9 mph - N/A   Clear
6:15 PM 46.4 °F 42.4 °F 3.2 °F 17% 30.06 in 10.0 mi WNW 8.1 mph - N/A   Clear
6:35 PM 44.6 °F 39.2 °F 5.0 °F 20% 30.06 in 10.0 mi NW 10.4 mph - N/A   Clear
6:55 PM 44.6 °F 39.7 °F 5.0 °F 20% 30.07 in 10.0 mi NW 9.2 mph - N/A   Clear
7:15 PM 41.0 °F 37.1 °F 5.0 °F 23% 30.07 in 10.0 mi NW 5.8 mph - N/A   Clear
7:35 PM 41.0 °F 35.2 °F 5.0 °F 23% 30.07 in 10.0 mi NW 9.2 mph - N/A   Clear
7:55 PM 37.4 °F 30.3 °F 5.0 °F 26% 30.08 in 10.0 mi NNW 10.4 mph - N/A   Clear
8:15 PM 39.2 °F 33.0 °F 5.0 °F 24% 30.08 in 10.0 mi NNW 9.2 mph - N/A   Clear
8:35 PM 39.2 °F 31.6 °F 5.0 °F 24% 30.07 in 10.0 mi NNW 12.7 mph - N/A   Clear
8:55 PM 37.4 °F 29.8 °F 5.0 °F 26% 30.06 in 10.0 mi NNW 11.5 mph - N/A   Clear
9:15 PM 39.2 °F 33.6 °F 5.0 °F 24% 30.07 in 10.0 mi NW 8.1 mph - N/A   Clear
9:35 PM 37.4 °F 30.3 °F 5.0 °F 26% 30.07 in 10.0 mi NW 10.4 mph - N/A   Clear
9:55 PM 39.2 °F 32.5 °F 5.0 °F 24% 30.07 in 10.0 mi NW 10.4 mph - N/A   Clear
10:15 PM 39.2 °F 32.0 °F 5.0 °F 24% 30.07 in 10.0 mi NNW 11.5 mph - N/A   Clear
10:35 PM 39.2 °F 32.0 °F 5.0 °F 24% 30.07 in 10.0 mi NNW 11.5 mph - N/A   Clear
10:55 PM 39.2 °F 32.0 °F 5.0 °F 24% 30.06 in 10.0 mi NNW 11.5 mph - N/A   Clear
11:15 PM 39.2 °F 32.0 °F 6.8 °F 26% 30.05 in 10.0 mi NNW 11.5 mph - N/A   Clear
11:35 PM 37.4 °F 30.3 °F 6.8 °F 28% 30.05 in 10.0 mi NNW 10.4 mph - N/A   Clear
11:55 PM 39.2 °F 32.0 °F 6.8 °F 26% 30.05 in 10.0 mi NNW 11.5 mph - N/A   Clear